Location: Newark
(39.8867°N, 94.3600°W)
Time: 00:39:10
(UTC+00:00)

N. Korean satellite - Pass Details

Date: 01 February 2020
Orbit: 456 x 505 km, 97.2° (Epoch: 27 February)

Event Time Altitude Azimuth Distance (km) Brightness Sun altitude
Rises 12:09:28 0° 10° (N) 2,568 10.2 -14.9°
Reaches altitude 10° 12:11:32 10° 9° (N) 1,690 9.3 -14.6°
Maximum altitude 12:15:10 78° 284° (WNW) 512 6.5 -13.9°
Drops below altitude 10° 12:18:50 10° 197° (SSW) 1,699 9.3 -13.2°
Sets 12:20:54 0° 196° (SSW) 2,583 10.2 -12.8°
